Regional Weather Roundup
Issued by NWS

Home | Current Version | Previous Version | Graphics & Text | Print | Product List | Glossary On
Versions: 1 2 3 4 5 6 7 8 9 10 11 12 13 14 15 16 17 18 19 20 21 22 23 24 25 26 27 28 29 30 31 32 33 34 35 36 37 38 39 40 41 42 43 44 45 46 47 48 49 50
000
ASUS43 KMKX 252021
RWRWI

WISCONSIN REGIONAL WEATHER ROUNDUP
NATIONAL WEATHER SERVICE MILWAUKEE/SULLIVAN WI
300 PM CDT SAT APR 25 2015

NOTE: "FAIR" INDICATES FEW OR NO CLOUDS BELOW 12,000 FEET WITH NO
SIGNIFICANT WEATHER AND/OR OBSTRUCTIONS TO VISIBILITY.

WIZ001-002-006>008-014>016-023>028-252100-
NORTHWEST WISCONSIN

CITY           SKY/WX    TMP DP  RH WIND       PRES   REMARKS
SUPERIOR ARPT  SUNNY     39  30  69 NE18G28   30.00R WCI  30
ASHLAND        SUNNY     46  25  43 NE22      29.99S
HAYWARD        SUNNY     57  29  34 NE16G26   29.89R
SIREN          PTSUNNY   60  20  21 E10G18    29.87S
CUMBERLAND     SUNNY     57  21  24 NE9G17    29.86S
RICE LAKE      SUNNY     59  17  19 E13       29.87S
CHETEK         SUNNY     58  21  24 N12G21    29.86S
LADYSMITH      PTSUNNY   59  21  22 E7        29.88S
EAU CLAIRE     MOSUNNY   59  19  21 E16G24    29.83F
MENOMONIE      MOSUNNY   59  16  18 E15       29.84F
NEW RICHMOND   SUNNY     59  18  20 NE14      29.85F
OSCEOLA        SUNNY     60  22  22 E15G22    29.88F
$$

WIZ003>005-009-010-017-018-252100-
NORTH CENTRAL WISCONSIN

CITY           SKY/WX    TMP DP  RH WIND       PRES   REMARKS
MANITOWISH WTR SUNNY     55  20  25 N9        29.87F
ARBOR VITAE    SUNNY     57  17  21 SE10G17   29.86F
WOODRUFF       SUNNY     57  17  21 SE10G17   29.86F
RHINELANDER    PTSUNNY   54  16  22 NE9       29.87F
EAGLE RIVER    SUNNY     55  14  19 E9G17     29.87F
LAND O LAKES   SUNNY     55  12  17 NE13      29.88F
PHILLIPS       MOSUNNY   56  22  27 N12G18    29.86S
TOMAHAWK       PTSUNNY   56  19  23 NE9       29.87F
MEDFORD        SUNNY     56  20  24 NE10G16   29.84F
MERRILL        MOSUNNY   56  16  21 NE15G21   29.86R
$$

WIZ029-030-035-036-043>047-252100-
CENTRAL WISCONSIN

CITY           SKY/WX    TMP DP  RH WIND       PRES   REMARKS
WAUSAU         MOSUNNY   57  19  22 NE15G21   29.83F
MOSINEE        NOT AVBL
MARSHFIELD     SUNNY     56  19  23 E20G25    29.84S
STEVENS POINT  SUNNY     52  19  26 NE13G22   29.85F
WAUPACA        SUNNY     56   9  15 E15G24    29.86F
WAUTOMA        SUNNY     54  10  17 NE15      29.84F
WISC RAPIDS    SUNNY     56  12  17 E15G26    29.85S
CAMP DOUGLAS   PTSUNNY   57  25  28 E13G20    29.81S
$$

WIZ011>013-019>022-031-037>040-048>050-252100-
NORTHEAST WISCONSIN

CITY           SKY/WX    TMP DP  RH WIND       PRES   REMARKS
ANTIGO         CLOUDY    54  20  27 NE15      29.86F
SHAWANO        PTSUNNY   55  20  25 E16       29.88S
OCONTO         CLOUDY    45  19  35 NE9G17    29.90F
STURGEON BAY   CLOUDY    45  12  26 E9        29.93S
GREEN BAY      PTSUNNY   49  24  37 NE21      29.89F
MANITOWOC      SUNNY     45  22  40 NE16G23   29.88S
APPLETON       MOSUNNY   48   7  18 NE17G30   29.86F
CLINTONVILLE   CLOUDY    52  12  20 E14G20    29.87S
OSHKOSH        MOSUNNY   52  27  38 NE20G25   29.84F
$$

WIZ032>034-041-042-053>061-252100-
SOUTHWEST WISCONSIN

CITY           SKY/WX    TMP DP  RH WIND       PRES   REMARKS
LA CROSSE      CLOUDY    56  34  43 E13G21    29.82R
SPARTA         CLOUDY    57  26  30 E15G21    29.82S
VIROQUA        CLOUDY    49  35  56 NE17G23   29.81R
BOSCOBEL       CLOUDY    54  36  50 E14G23    29.79F
PRAIRIE DU CHI CLOUDY    51  35  54 E14G25    29.77S
PLATTEVILLE    CLOUDY    51  40  64 NE24G31   29.74F
$$

WIZ056-057-062-063-064-067-068-252100-
SOUTH CENTRAL WISCONSIN

CITY           SKY/WX    TMP DP  RH WIND       PRES   REMARKS
REEDSBURG      CLOUDY    50  29  44 NE15      29.81S
BARABOO/DELLS  CLOUDY    50  26  39 E13G20    29.82S
LONE ROCK      CLOUDY    50  36  58 E15       29.80F
MINERAL POINT  CLOUDY    48  36  61 NE16G25   29.76F
MADISON        CLOUDY    49  35  58 E16       29.81S
MIDDLETON      CLOUDY    50  36  59 E14G20    29.81S
WATERTOWN      CLOUDY    47  35  64 E12       29.81F
MONROE         CLOUDY    46  37  71 NE17G31   29.75F
JANESVILLE     CLOUDY    48  37  66 E17       29.77F
$$

WIZ051-052-058>065-066-070>072-252100-
SOUTHEAST WISCONSIN

CITY           SKY/WX    TMP DP  RH WIND       PRES   REMARKS
MILWAUKEE      CLOUDY    39  29  67 NE14G24   29.85F WCI  31
WAUKESHA       CLOUDY    41  30  65 NE9       29.84S
MILWAUKEE/TIMM CLOUDY    41  25  52 NE14      29.85S
RACINE         CLOUDY    40  32  73 N17       29.84F WCI  31
BURLINGTON     CLOUDY    41  33  72 NE14G22   29.80F
KENOSHA        CLOUDY    46  40  79 NE15      29.80F
FOND DU LAC    MOSUNNY   53  22  29 NE22      29.84F
SHEBOYGAN      MOSUNNY   47  23  38 NE24      29.86F
WEST BEND      CLOUDY    46  23  39 NE16      29.83F
JUNEAU         CLOUDY    48  28  47 E17       29.83S
$$

LSZ147-162-252100-
LAKE SUPERIOR

STATION/POSITION TIME  TEMP    WIND        PRES    WAVE
                       AIR SEA DIR/SP/G            HT/PER
                 (UTC) (F)     (DEG/KT/KT) (MB)    (FT/S)
W MID LAKE BUOY  1950   35 35   40/ 14/ 17 1017.9F   3/ 4
DEVILS ISLAND    2000   35      40/ 18/ 21 1017.2F
PORT WING        1908   37      30/ 26     1015.6F
SAXON HARBOR     1900   37      10/  8/ 11 1015.2F
$$

LMZ867-665-643>646-252100-
LAKE MICHIGAN

STATION/POSITION TIME  TEMP    WIND        PRES    WAVE
                       AIR SEA DIR/SP/G            HT/PER
                 (UTC) (F)     (DEG/KT/KT) (MB)    (FT/S)
CHAMBERS ISLAND  1900   38     360/ 14/ 16 1013.9F
NORTHPORT PIER   1900   39      60/  9/ 13 1013.9F
SISTER BAY       1847   49     100/  8/ 15   N/A
KEWAUNEE LAKESHO 1900   38      30/ 16/ 20 1012.0F
SHEBOYGAN LAKESH 2000   38      20/ 20/ 24 1012.0F
PORT WASHINGTON  1940   43      40/ 16/ 22 1011.5F
MILWAUKEE LAKESH 2000   39      10/ 15/ 19   N/A
KENOSHA   LAKESH 2000   40      20/ 21/ 22 1009.5F
$$

TC  - TEMPERATURE IN CELSIUS
VSB - VISIBILITY IN STATUTE MILES
WCI - WIND CHILL INDEX
HX  - HEAT INDEX



USA.gov is the U.S. government's official web portal to all federal, state and local government web resources and services.